THY3YM LIBD-LTFM

Flight info

Callsign THY3YM
Flight time N/A
Altitude 35000
Route VURKE DCT PAPIZ DCT PINDO UM603 PEREN UN644 DIGTI UT162 DRAMO
Aircraft A321/M-SDE3FGHIRWY/LB1

Departure

Time 2026-04-27 18:57
Airport Bari Karol Wojtyła International Airport (LIBD)

Arrival

Time N/A
Airport İstanbul Airport (LTFM)
Time Latitude Longitude Altitude Speed Heading
2026-04-27 18:33 41.13514 16.76292 136 ft 0 kts 159°
2026-04-27 18:35 41.13497 16.76236 136 ft 0 kts 159°
2026-04-27 18:45 41.13504 16.76233 136 ft 4 kts 160°
2026-04-27 18:45 41.13529 16.76224 136 ft 4 kts 173°
2026-04-27 18:45 41.13556 16.76224 136 ft 4 kts 197°
2026-04-27 18:46 41.13572 16.76235 136 ft 0 kts 235°
2026-04-27 18:48 41.13572 16.76234 136 ft 1 kts 235°
2026-04-27 18:48 41.13563 16.76203 136 ft 7 kts 252°
2026-04-27 18:49 41.13560 16.76121 136 ft 8 kts 289°
2026-04-27 18:49 41.13594 16.76073 136 ft 8 kts 321°
2026-04-27 18:49 41.13635 16.76018 136 ft 9 kts 296°
2026-04-27 18:49 41.13629 16.75933 136 ft 10 kts 250°
2026-04-27 18:50 41.13604 16.75845 137 ft 10 kts 249°
2026-04-27 18:50 41.13579 16.75755 138 ft 11 kts 249°
2026-04-27 18:50 41.13550 16.75654 138 ft 12 kts 249°
2026-04-27 18:50 41.13519 16.75546 140 ft 11 kts 250°
2026-04-27 18:51 41.13493 16.75454 143 ft 12 kts 249°
2026-04-27 18:51 41.13459 16.75334 142 ft 15 kts 249°
2026-04-27 18:51 41.13421 16.75200 144 ft 15 kts 250°
2026-04-27 18:51 41.13387 16.75079 148 ft 13 kts 249°
2026-04-27 18:52 41.13354 16.74963 148 ft 14 kts 249°
2026-04-27 18:52 41.13317 16.74836 148 ft 15 kts 249°
2026-04-27 18:52 41.13280 16.74703 152 ft 14 kts 250°
2026-04-27 18:53 41.13208 16.74448 154 ft 15 kts 249°
2026-04-27 18:53 41.13173 16.74324 153 ft 12 kts 249°
2026-04-27 18:53 41.13179 16.74217 150 ft 13 kts 300°
2026-04-27 18:53 41.13208 16.74153 147 ft 9 kts 304°
2026-04-27 18:54 41.13276 16.74114 145 ft 12 kts 10°
2026-04-27 18:54 41.13312 16.74155 146 ft 9 kts 58°
2026-04-27 18:54 41.13326 16.74201 147 ft 0 kts 70°
2026-04-27 18:55 41.13327 16.74203 147 ft 0 kts 70°
2026-04-27 18:55 41.13327 16.74205 147 ft 0 kts 70°
2026-04-27 18:56 41.13356 16.74305 147 ft 41 kts 69°
2026-04-27 18:56 41.13547 16.74982 138 ft 113 kts 69°
2026-04-27 18:56 41.13893 16.76206 137 ft 167 kts 69°
2026-04-27 18:56 41.14323 16.77743 535 ft 180 kts 70°
2026-04-27 18:57 41.14749 16.79297 1283 ft 178 kts 70°
2026-04-27 18:57 41.15183 16.80863 1742 ft 187 kts 70°
2026-04-27 18:57 41.15663 16.82580 1938 ft 211 kts 70°
2026-04-27 18:57 41.16197 16.84493 2139 ft 233 kts 69°
2026-04-27 18:58 41.16785 16.86581 2491 ft 251 kts 69°
2026-04-27 18:58 41.17403 16.88763 3263 ft 255 kts 69°
2026-04-27 18:58 41.18032 16.90979 4035 ft 258 kts 69°
2026-04-27 18:58 41.18632 16.93236 4788 ft 262 kts 77°
2026-04-27 18:59 41.18758 16.95692 5378 ft 273 kts 91°
2026-04-27 18:59 41.18711 16.98223 6109 ft 276 kts 91°
2026-04-27 18:59 41.18663 17.00788 6863 ft 279 kts 91°
2026-04-27 18:59 41.18617 17.03383 7602 ft 283 kts 91°
2026-04-27 19:00 41.18571 17.06011 8335 ft 286 kts 91°
2026-04-27 19:00 41.18527 17.08658 9061 ft 289 kts 91°
2026-04-27 19:00 41.18481 17.11340 9764 ft 292 kts 91°
2026-04-27 19:00 41.18437 17.14058 10354 ft 301 kts 91°
2026-04-27 19:01 41.18522 17.16937 10513 ft 324 kts 82°
2026-04-27 19:01 41.18846 17.19999 10654 ft 346 kts 82°
2026-04-27 19:01 41.19188 17.23253 10823 ft 365 kts 82°
2026-04-27 19:01 41.19536 17.26632 11311 ft 373 kts 82°
2026-04-27 19:02 41.19885 17.30064 11928 ft 377 kts 82°
2026-04-27 19:02 41.20233 17.33533 12555 ft 381 kts 82°
2026-04-27 19:02 41.20579 17.36987 13161 ft 384 kts 82°
2026-04-27 19:02 41.20933 17.40520 13773 ft 388 kts 81°
2026-04-27 19:03 41.21292 17.44087 14379 ft 392 kts 81°
2026-04-27 19:03 41.21655 17.47688 14977 ft 395 kts 81°
2026-04-27 19:03 41.22019 17.51327 15566 ft 399 kts 81°
2026-04-27 19:03 41.22267 17.53799 15960 ft 401 kts 81°
2026-04-27 19:04 41.22756 17.58695 16716 ft 406 kts 81°
2026-04-27 19:04 41.23127 17.62429 17266 ft 410 kts 81°
2026-04-27 19:04 41.23501 17.66200 17815 ft 413 kts 81°
2026-04-27 19:04 41.23876 17.70003 18348 ft 417 kts 81°
2026-04-27 19:05 41.24250 17.73841 18855 ft 420 kts 81°
2026-04-27 19:05 41.24629 17.77707 19337 ft 424 kts 81°
2026-04-27 19:05 41.25009 17.81608 19813 ft 427 kts 81°
2026-04-27 19:05 41.25389 17.85536 20273 ft 431 kts 81°
2026-04-27 19:06 41.25771 17.89500 20718 ft 434 kts 81°
2026-04-27 19:06 41.26152 17.93495 21139 ft 437 kts 81°
2026-04-27 19:06 41.26532 17.97520 21569 ft 441 kts 81°
2026-04-27 19:06 41.26913 18.01523 21975 ft 444 kts 82°
2026-04-27 19:07 41.27037 18.05642 22355 ft 449 kts 91°
2026-04-27 19:07 41.26624 18.09772 22728 ft 454 kts 102°
2026-04-27 19:07 41.25673 18.13784 23098 ft 458 kts 112°
2026-04-27 19:07 41.24211 18.17552 23463 ft 461 kts 121°
2026-04-27 19:08 41.22564 18.21229 23826 ft 464 kts 120°
2026-04-27 19:08 41.20911 18.24926 24186 ft 467 kts 120°
2026-04-27 19:08 41.19248 18.28643 24561 ft 469 kts 121°
2026-04-27 19:08 41.17578 18.32371 24926 ft 472 kts 121°
2026-04-27 19:09 41.15897 18.36125 25259 ft 474 kts 121°
2026-04-27 19:09 41.14206 18.39895 25600 ft 476 kts 121°
2026-04-27 19:09 41.12507 18.43675 25924 ft 479 kts 121°
2026-04-27 19:09 41.10796 18.47479 26243 ft 481 kts 121°
2026-04-27 19:10 41.09074 18.51300 26570 ft 483 kts 121°
2026-04-27 19:10 41.07344 18.55134 26884 ft 486 kts 121°
2026-04-27 19:10 41.05607 18.58984 27203 ft 488 kts 121°
2026-04-27 19:10 41.04451 18.61541 27415 ft 489 kts 121°
2026-04-27 19:11 41.02104 18.66727 27825 ft 492 kts 121°
2026-04-27 19:11 41.00369 18.70558 28217 ft 491 kts 121°
2026-04-27 19:11 40.98612 18.74434 28632 ft 490 kts 121°
2026-04-27 19:11 40.96859 18.78298 29026 ft 490 kts 121°
2026-04-27 19:12 40.95105 18.82156 29427 ft 489 kts 121°
2026-04-27 19:12 40.93348 18.86009 29809 ft 488 kts 122°
2026-04-27 19:12 40.91594 18.89847 30193 ft 488 kts 122°
2026-04-27 19:12 40.89925 18.93748 30553 ft 487 kts 116°
2026-04-27 19:13 40.88661 18.97892 30908 ft 487 kts 107°
2026-04-27 19:13 40.87778 19.02206 31263 ft 486 kts 104°
2026-04-27 19:13 40.86940 19.06527 31621 ft 485 kts 104°
2026-04-27 19:13 40.86100 19.10843 31961 ft 485 kts 104°
2026-04-27 19:14 40.85255 19.15154 32296 ft 485 kts 104°
2026-04-27 19:14 40.84407 19.19459 32633 ft 484 kts 104°
2026-04-27 19:14 40.83555 19.23754 32943 ft 484 kts 104°
2026-04-27 19:14 40.82699 19.28052 33263 ft 484 kts 104°
2026-04-27 19:15 40.81843 19.32339 33579 ft 483 kts 104°
2026-04-27 19:15 40.80997 19.36566 33897 ft 482 kts 104°
2026-04-27 19:15 40.80134 19.40894 34199 ft 482 kts 104°
2026-04-27 19:15 40.79294 19.45114 34441 ft 482 kts 104°
2026-04-27 19:16 40.78441 19.49395 34693 ft 482 kts 104°
2026-04-27 19:16 40.77864 19.52284 34862 ft 482 kts 104°
2026-04-27 19:16 40.76726 19.57947 35060 ft 482 kts 104°